Regional Weather Roundup
Issued by NWS Newport/Morehead, NC

Current Version | Previous Version | Graphics & Text | Print | Product List | Glossary Off
Versions: 1 2 3 4 5 6 7 8 9 10 11 12 13 14 15 16 17 18 19 20 21 22 23 24 25 26 27 28 29 30 31 32 33 34 35 36 37 38 39 40 41 42 43 44 45 46 47 48 49 50

000
ASUS42 KMHX 240422
RWRMHX
WEATHER ROUNDUP FOR EASTERN NORTH CAROLINA
NATIONAL WEATHER SERVICE NEWPORT/MOREHEAD CITY NC
1200 AM EDT FRI OCT 24 2014

NOTE: "FAIR" INDICATES FEW OR NO CLOUDS BELOW 12,000 FEET
WITH NO SIGNIFICANT WEATHER AND/OR OBSTRUCTIONS TO VISIBILITY

NCZ015>017-031-032-045>047-102-103-240500-
NORTH COAST

CITY           SKY/WX    TMP DP  RH WIND       PRES   REMARKS
EDENTON        PTCLDY    56  51  83 W6        29.96S
ELIZABETH CITY CLEAR     56  46  69 W7        29.93S
KITTY HAWK     CLEAR     59  50  72 W8        29.91S
MANTEO         CLEAR     59  50  71 NW7       29.93S

$$

NCZ045>047-081-094-103-104-240500-
CENTRAL COAST

CITY           SKY/WX    TMP DP  RH WIND       PRES   REMARKS
FRISCO         PTCLDY    60  51  72 VRB6      29.94F
SWANQUARTER    NOT AVBL

$$

NCZ095-097-098-100-101-240500-
SOUTHERN COAST

CITY           SKY/WX    TMP DP  RH WIND       PRES   REMARKS
BEAUFORT       CLEAR     57  50  77 NW5       29.97F
CEDAR ISLAND   NOT AVBL
JACKSONVILLE   CLEAR     52  48  86 W7        29.99S
PINEY ISLAND   CLEAR     62  49  62 NW10      29.97R
WILMINGTON     CLEAR     55  48  77 W3        30.00F


$$

NCZ011>013-027>030-043-044-078>080-089-090>093-098-240500-
COASTAL PLAIN

CITY           SKY/WX    TMP DP  RH WIND       PRES   REMARKS
AHOSKIE        CLEAR     48  46  93 CALM      29.98S
CLINTON        CLEAR     50  48  93 CALM      30.01S
ELIZABETHTOWN  CLEAR     56  46  69 NW5       30.01S
GOLDSBORO      CLEAR     56  50  79 NW7       29.98S
GREENVILLE     CLEAR     54  46  76 CALM      30.01R
HAVELOCK       CLEAR     55  48  77 NW6       29.99S
KENANSVILLE    CLEAR     53  46  79 W3        30.01S
KINSTON        CLEAR     53  47  79 NW6       29.99F
NEW BERN       CLEAR     56  47  71 NW5       29.99F
RICHLANDS      CLEAR     46  43  87 W3        30.00S
ROCKY MOUNT    CLEAR     54  45  71 W5        30.01R
WASHINGTON     CLEAR     51  46  83 CALM      29.98S
WHITEVILLE     CLEAR     51  45  81 CALM      30.00S

$$

AMZ130-135-150-152-154-156-158-170-250-252-270-ANZ085-086-088-633-658-670-240500-
MARINE OBSERVATIONS

STATION/POSITION TIME  TEMP    WIND        PRES    WAVE   SWELL
                       AIR SEA DIR/SP/G            HT/PER HT/PER
                 (UTC) (F)     (DEG/KT/KT) (MB)    (FT/S) (FT/S)
CHESAPEAKE LIGHT 0400   63     310/ 27/ 30 1012.8
64 E VA BEACH    0400   64 67  320/ 19/ 25 1010.6    8/ 9   5/ 9
DUCK             0400   59 66  280/ 12/ 16 1012.2
2 E DUCK         0400                        N/A     4/ 6
10 NE DUCK       0400      68                N/A     5/ 6
OREGON INLET     0400   59 64  280/  9/ 11 1013.0
13E OREGON INLT  0400      70                N/A     6/ 6   2/11
HATTERAS CG      0400   63 63  310/ 12/ 15 1014.2
DIAMOND BUOY     0400   65     320/ 17/ 19 1013.7    5/ 5   2/ 9
17 S OCRACOKE    NOT AVBL
CAPE LOOKOUT     0400   65     310/ 10/ 12 1014.7
BEAUFORT LAB     0400   60 67  310/  5/  7 1014.2
30 SE NEW RIVER  0400   69 75  310/ 14/ 17 1014.7    3/11   2/11
5 SE WRIGHTSVLE  0400   60 72  320/ 14/ 16   N/A
225 S CAPE HAT   0326   71 78  300/ 12/ 19 1015.8    6/11   5/11
41 SE CHARLESTON 0400   69 78  320/ 12/ 16 1016.5    3/ 8   2/ 8

$$



USA.gov is the U.S. government's official web portal to all federal, state and local government web resources and services.